Louisville, KY

3:32 AM EDT on June 26, 2017 (GMT -0400)
Louisville International-Standiford

Weather History for KSDF - September, 2013

Change the Weather History Date:

Saturday, September 21, 2013

  Actual Average Record
Temperature  
Mean Temperature 67 °F 69 °F  
Max Temperature 75 °F 79 °F 98 °F (2010)
Min Temperature 58 °F 58 °F 42 °F (1962)
Degree Days  
Heating Degree Days 0 1  
Month to date heating degree days 2 7  
Since 1 July heating degree days 2 7  
Cooling Degree Days 2 5  
Month to date cooling degree days 204 174  
Year to date cooling degree days 1544 1531  
Growing Degree Days 18 (Base 50)    
Moisture  
Dew Point 58 °F    
Average Humidity 67    
Maximum Humidity 93    
Minimum Humidity 41    
Precipitation  
Precipitation 0.65 in 0.10 in 4.30 in (1979)
Month to date precipitation 2.66 2.08  
Year to date precipitation 34.47 33.30  
Snow  
Snow 0.00 in 0.00 in - ()
Month to date snowfall 0.0 0.0  
Since 1 July snowfall 0.0 0.0  
Since 1 September snowfall 0.0 0.0  
Snow Depth 0.00 in    
Sea Level Pressure  
Sea Level Pressure 29.81 in    
Wind  
Wind Speed 8 mph (NW)    
Max Wind Speed 24 mph    
Max Gust Speed 29 mph    
Visibility 8 miles    
Events Rain    
T = Trace of Precipitation, MM = Missing Value Source: NWS Daily Summary

Daily Weather History Graph

Daily Weather History Graph

Search for Another Location

Airport or City:

Trip Planner

Search our weather history database for the weather conditions in past years. The results will help you decide how hot, cold, wet, or windy it might be!

Date:

Astronomy

Sep. 21, 2013 Rise Set
Actual Time 7:30 AM EDT 7:41 PM EDT
Civil Twilight 7:03 AM EDT 8:07 PM EDT
Nautical Twilight 6:32 AM EDT 8:38 PM EDT
Astronomical Twilight 6:01 AM EDT 9:09 PM EDT
Moon 8:54 PM EDT (9/21) 9:45 AM EDT (9/21)
Length of Visible Light 13h 03m
Length of Day
12h 11m
Waning Gibbous, 94% of the Moon is Illuminated
Sep 21
Waning Gibbous
Sep 26
Last Quarter
Oct 4
New
Oct 11
First Quarter
Oct 18
Full

Hourly Weather History & Observations

Time (EDT) Temp. Dew Point Humidity Pressure Visibility Wind Dir Wind Speed Gust Speed Precip Events Conditions
12:12 AM 68.0 °F 66.2 °F 94% 29.83 in 4.0 mi NNW 6.9 mph - 0.04 in Rain Rain
12:48 AM 68.0 °F 66.2 °F 94% 29.83 in 2.5 mi WNW 6.9 mph - 0.14 in Rain Heavy Rain
12:56 AM 68.0 °F 66.0 °F 93% 29.82 in 2.5 mi West 3.5 mph - 0.18 in Rain Heavy Rain
1:10 AM 68.0 °F 66.2 °F 94% 29.83 in 3.0 mi SSW 5.8 mph - 0.07 in Rain Heavy Rain
1:25 AM 68.0 °F 66.2 °F 94% 29.83 in 4.0 mi SW 3.5 mph - 0.12 in Rain Rain
1:56 AM 68.0 °F 66.0 °F 93% 29.80 in 3.0 mi WNW 3.5 mph - 0.19 in Rain Rain
2:03 AM 68.0 °F 66.2 °F 94% 29.81 in 5.0 mi Calm Calm - 0.01 in Rain Light Rain
2:33 AM 68.0 °F 66.2 °F 94% 29.81 in 2.5 mi Calm Calm - 0.09 in Rain Rain
2:40 AM 68.0 °F 66.2 °F 94% 29.80 in 4.0 mi Calm Calm - 0.10 in Rain Heavy Rain
2:56 AM 68.0 °F 66.0 °F 93% 29.78 in 3.0 mi Calm Calm - 0.16 in Rain Rain
3:56 AM 68.0 °F 66.0 °F 93% 29.76 in 3.0 mi WNW 3.5 mph - 0.10 in Rain Rain
4:56 AM 68.0 °F 66.0 °F 93% 29.73 in 5.0 mi North 4.6 mph - 0.13 in Rain Rain
5:05 AM 68.0 °F 66.2 °F 94% 29.75 in 5.0 mi Calm Calm - 0.01 in Rain Light Rain
5:15 AM 68.0 °F 66.2 °F 94% 29.74 in 6.0 mi Calm Calm - 0.02 in Rain Light Rain
5:46 AM 64.4 °F 60.8 °F 88% 29.75 in 7.0 mi North 19.6 mph 28.8 mph 0.05 in Rain Light Rain
5:56 AM 64.0 °F 61.0 °F 90% 29.74 in 7.0 mi North 16.1 mph - 0.05 in Rain Light Rain
6:06 AM 64.4 °F 60.8 °F 88% 29.75 in 6.0 mi North 16.1 mph - 0.01 in Rain Light Rain
6:38 AM 62.6 °F 60.8 °F 94% 29.77 in 10.0 mi NNW 11.5 mph - 0.03 in Rain Light Rain
6:56 AM 63.0 °F 61.0 °F 93% 29.76 in 7.0 mi NW 11.5 mph - 0.03 in Rain Light Rain
7:56 AM 62.1 °F 59.0 °F 90% 29.79 in 10.0 mi NW 10.4 mph - 0.01 in   Mostly Cloudy
8:29 AM 62.6 °F 57.2 °F 82% 29.81 in 10.0 mi NW 8.1 mph - N/A   Mostly Cloudy
8:56 AM 61.0 °F 57.0 °F 87% 29.82 in 10.0 mi NW 10.4 mph - N/A   Mostly Cloudy
9:56 AM 62.1 °F 57.0 °F 84% 29.83 in 10.0 mi NW 10.4 mph - N/A   Mostly Cloudy
10:56 AM 66.0 °F 57.0 °F 73% 29.83 in 10.0 mi NNW 10.4 mph - N/A   Mostly Cloudy
11:56 AM 68.0 °F 55.9 °F 65% 29.83 in 10.0 mi NW 12.7 mph - N/A   Mostly Cloudy
12:35 PM 69.8 °F 57.2 °F 64% 29.84 in 10.0 mi NNW 9.2 mph - N/A   Mostly Cloudy
12:47 PM 69.8 °F 55.4 °F 60% 29.84 in 10.0 mi North 10.4 mph - N/A   Mostly Cloudy
12:56 PM 70.0 °F 55.9 °F 61% 29.83 in 10.0 mi NNW 11.5 mph - N/A   Mostly Cloudy
1:56 PM 73.0 °F 54.0 °F 51% 29.83 in 10.0 mi North 11.5 mph - N/A   Mostly Cloudy
2:56 PM 72.0 °F 50.0 °F 46% 29.82 in 10.0 mi NNW 11.5 mph - N/A   Mostly Cloudy
3:56 PM 73.9 °F 48.9 °F 41% 29.81 in 10.0 mi NNW 9.2 mph - N/A   Scattered Clouds
4:56 PM 71.1 °F 48.0 °F 44% 29.81 in 10.0 mi NNW 10.4 mph - N/A   Scattered Clouds
5:56 PM 72.0 °F 48.0 °F 43% 29.81 in 10.0 mi NW 9.2 mph - N/A   Scattered Clouds
6:56 PM 71.1 °F 46.9 °F 42% 29.83 in 10.0 mi NNW 10.4 mph - N/A   Scattered Clouds
7:56 PM 68.0 °F 46.9 °F 47% 29.84 in 10.0 mi NNW 10.4 mph - N/A   Partly Cloudy
8:56 PM 64.0 °F 48.0 °F 56% 29.86 in 10.0 mi NNW 5.8 mph - N/A   Partly Cloudy
9:56 PM 61.0 °F 50.0 °F 67% 29.86 in 10.0 mi WNW 4.6 mph - N/A   Scattered Clouds
10:56 PM 60.1 °F 51.1 °F 72% 29.87 in 10.0 mi WNW 3.5 mph - N/A   Partly Cloudy
11:56 PM 60.1 °F 50.0 °F 69% 29.88 in 10.0 mi NNW 4.6 mph - N/A   Clear